Corinth, MS

1:09 AM CST on January 21, 2017 (GMT -0600)
Corinth

Weather History for KCRX - October, 2013

Change the Weather History Date:

Thursday, October 24, 2013

  Actual Average Record
Temperature  
Mean Temperature 50 °F -  
Max Temperature 64 °F 71 °F 86 °F (1931)
Min Temperature 37 °F 47 °F 27 °F (1981)
Degree Days  
Heating Degree Days 14    
Moisture  
Dew Point 39 °F    
Average Humidity 70    
Maximum Humidity 100    
Minimum Humidity 42    
Precipitation  
Precipitation 0.00 in - - ()
Sea Level Pressure  
Sea Level Pressure 30.21 in    
Wind  
Wind Speed 3 mph (NNW)    
Max Wind Speed 13 mph    
Max Gust Speed 20 mph    
Visibility 9 miles    
Events      
Averages and records for this station are not official NWS values.
T = Trace of Precipitation, MM = Missing Value Source: NWS Daily Summary

Daily Weather History Graph

Daily Weather History Graph

Search for Another Location

Airport or City:

Trip Planner

Search our weather history database for the weather conditions in past years. The results will help you decide how hot, cold, wet, or windy it might be!

Date:

Astronomy

Oct. 24, 2013 Rise Set
Actual Time 7:08 AM CDT 6:08 PM CDT
Civil Twilight 6:42 AM CDT 6:34 PM CDT
Nautical Twilight 6:12 AM CDT 7:03 PM CDT
Astronomical Twilight 5:43 AM CDT 7:33 PM CDT
Moon 10:37 PM CDT (10/24) 12:03 PM CDT (10/24)
Length of Visible Light 11h 51m
Length of Day
11h 00m
Waning Gibbous, 71% of the Moon is Illuminated
Oct 24
Waning Gibbous
Oct 26
Last Quarter
Nov 3
New
Nov 9
First Quarter
Nov 17
Full

Hourly Weather History & Observations

Time (CDT) Temp. Windchill Dew Point Humidity Pressure Visibility Wind Dir Wind Speed Gust Speed Precip Events Conditions
12:10 AM 39.2 °F - 37.4 °F 93% 30.13 in 6.0 mi Calm Calm - N/A   Overcast
12:30 AM 39.2 °F - 37.4 °F 93% 30.14 in 7.0 mi Calm Calm - N/A   Overcast
12:50 AM 39.2 °F - 37.4 °F 93% 30.14 in 7.0 mi Calm Calm - N/A   Scattered Clouds
1:10 AM 39.2 °F - 37.4 °F 93% 30.15 in 4.0 mi Calm Calm - N/A   Clear
1:30 AM 39.2 °F - 37.4 °F 93% 30.14 in 5.0 mi Calm Calm - N/A   Clear
1:50 AM 39.2 °F - 37.4 °F 93% 30.14 in 7.0 mi Calm Calm - N/A   Clear
2:10 AM 37.4 °F - 37.4 °F 100% 30.15 in 5.0 mi Calm Calm - N/A   Mostly Cloudy
2:30 AM 39.2 °F 37.0 °F 39.2 °F 100% 30.15 in 5.0 mi SE 3.5 mph - N/A   Overcast
2:50 AM 41.0 °F - 39.2 °F 93% 30.15 in 5.0 mi Calm Calm - N/A   Overcast
3:10 AM 41.0 °F - 39.2 °F 93% 30.14 in 7.0 mi Calm Calm - N/A   Overcast
3:30 AM 41.0 °F 39.0 °F 39.2 °F 93% 30.14 in 4.0 mi SSE 3.5 mph - N/A   Overcast
3:50 AM 41.0 °F 38.0 °F 39.2 °F 93% 30.13 in 4.0 mi SE 4.6 mph - N/A   Overcast
4:10 AM 42.8 °F - 41.0 °F 93% 30.13 in 5.0 mi Calm Calm - N/A   Overcast
4:30 AM 42.8 °F - 41.0 °F 93% 30.13 in 3.0 mi Calm Calm - N/A   Overcast
4:50 AM 44.6 °F - 41.0 °F 87% 30.13 in 5.0 mi Calm Calm - N/A   Overcast
5:10 AM 42.8 °F - 41.0 °F 93% 30.14 in 10.0 mi Calm Calm - N/A   Overcast
5:30 AM 44.6 °F - 41.0 °F 87% 30.14 in 10.0 mi Calm Calm - N/A   Overcast
5:50 AM 44.6 °F - 41.0 °F 87% 30.15 in 10.0 mi Calm Calm - N/A   Overcast
6:10 AM 44.6 °F - 41.0 °F 87% 30.15 in 10.0 mi Calm Calm - N/A   Overcast
6:30 AM 44.6 °F 43.1 °F 41.0 °F 87% 30.15 in 10.0 mi SSE 3.5 mph - N/A   Overcast
6:50 AM 44.6 °F 43.1 °F 41.0 °F 87% 30.15 in 10.0 mi ESE 3.5 mph - N/A   Overcast
7:10 AM 44.6 °F 43.1 °F 41.0 °F 87% 30.15 in 10.0 mi ESE 3.5 mph - N/A   Overcast
7:30 AM 44.6 °F 42.2 °F 42.8 °F 93% 30.15 in 10.0 mi SE 4.6 mph - N/A   Overcast
7:50 AM 46.4 °F 44.3 °F 42.8 °F 87% 30.16 in 10.0 mi ESE 4.6 mph - N/A   Overcast
8:10 AM 46.4 °F - 44.6 °F 93% 30.17 in 10.0 mi Calm Calm - N/A   Overcast
8:30 AM 46.4 °F - 42.8 °F 87% 30.18 in 10.0 mi Calm Calm - N/A   Overcast
8:50 AM 48.2 °F - 44.6 °F 87% 30.19 in 10.0 mi SSE 4.6 mph - N/A   Overcast
9:10 AM 50.0 °F - 42.8 °F 76% 30.20 in 10.0 mi Calm Calm - N/A   Overcast
9:30 AM 50.0 °F - 41.0 °F 71% 30.21 in 10.0 mi South 3.5 mph - N/A   Overcast
9:50 AM 53.6 °F - 41.0 °F 62% 30.21 in 10.0 mi SW 5.8 mph - N/A   Scattered Clouds
10:10 AM 55.4 °F - 41.0 °F 58% 30.21 in 10.0 mi SSW 5.8 mph - N/A   Clear
10:30 AM 57.2 °F - 41.0 °F 55% 30.21 in 10.0 mi SSW 5.8 mph - N/A   Clear
10:50 AM 57.2 °F - 41.0 °F 55% 30.21 in 10.0 mi South 3.5 mph - N/A   Clear
11:10 AM 59.0 °F - 41.0 °F 51% 30.21 in 10.0 mi SSW 5.8 mph - N/A   Clear
11:30 AM 59.0 °F - 41.0 °F 51% 30.20 in 10.0 mi Calm Calm - N/A   Clear
11:50 AM 60.8 °F - 41.0 °F 48% 30.20 in 10.0 mi Calm Calm - N/A   Clear
12:10 PM 62.6 °F - 41.0 °F 45% 30.19 in 10.0 mi NNW 4.6 mph - N/A   Clear
12:30 PM 62.6 °F - 41.0 °F 45% 30.18 in 10.0 mi NW 3.5 mph - N/A   Clear
12:50 PM 62.6 °F - 41.0 °F 45% 30.18 in 10.0 mi North 3.5 mph - N/A   Partly Cloudy
1:10 PM 64.4 °F - 41.0 °F 42% 30.17 in 10.0 mi West 3.5 mph - N/A   Partly Cloudy
1:30 PM 62.6 °F - 42.8 °F 48% 30.17 in 10.0 mi NNW 6.9 mph - N/A   Mostly Cloudy
1:50 PM 62.6 °F - 42.8 °F 48% 30.16 in 10.0 mi NW 8.1 mph - N/A   Scattered Clouds
2:10 PM 64.4 °F - 42.8 °F 45% 30.16 in 10.0 mi NW 9.2 mph - N/A   Mostly Cloudy
2:30 PM 64.4 °F - 41.0 °F 42% 30.17 in 10.0 mi NNW 6.9 mph - N/A   Overcast
2:50 PM 64.4 °F - 42.8 °F 45% 30.17 in 10.0 mi North 12.7 mph - N/A   Mostly Cloudy
3:10 PM 62.6 °F - 41.0 °F 45% 30.17 in 10.0 mi NW 9.2 mph - N/A   Scattered Clouds
3:30 PM 62.6 °F - 41.0 °F 45% 30.18 in 10.0 mi NNW 9.2 mph - N/A   Clear
3:50 PM 59.0 °F - 41.0 °F 51% 30.19 in 10.0 mi North 12.7 mph 17.3 mph N/A   Clear
4:10 PM 60.8 °F - 41.0 °F 48% 30.19 in 7.0 mi North 10.4 mph 17.3 mph N/A   Clear
4:30 PM 59.0 °F - 41.0 °F 51% 30.20 in 10.0 mi North 9.2 mph 18.4 mph N/A   Clear
4:50 PM 59.0 °F - 39.2 °F 48% 30.21 in 10.0 mi North 10.4 mph - N/A   Clear
5:10 PM 57.2 °F - 39.2 °F 51% 30.21 in 10.0 mi North 8.1 mph 19.6 mph N/A   Clear
5:30 PM 55.4 °F - 37.4 °F 51% 30.22 in 10.0 mi North 6.9 mph - N/A   Clear
5:50 PM 55.4 °F - 37.4 °F 51% 30.23 in 10.0 mi North 6.9 mph - N/A   Clear
6:10 PM 53.6 °F - 37.4 °F 54% 30.24 in 10.0 mi NNW 5.8 mph - N/A   Clear
6:30 PM 51.8 °F - 37.4 °F 58% 30.24 in 10.0 mi North 5.8 mph - N/A   Clear
6:50 PM 50.0 °F - 37.4 °F 62% 30.26 in 10.0 mi North 9.2 mph - N/A   Clear
7:10 PM 50.0 °F - 37.4 °F 62% 30.27 in 10.0 mi North 9.2 mph - N/A   Clear
7:30 PM 48.2 °F - 37.4 °F 66% 30.28 in 10.0 mi North 5.8 mph - N/A   Clear
7:50 PM 48.2 °F - 37.4 °F 66% 30.29 in 10.0 mi NNW 4.6 mph - N/A   Clear
8:10 PM 46.4 °F 44.3 °F 37.4 °F 71% 30.30 in 10.0 mi NNW 4.6 mph - N/A   Clear
8:30 PM 46.4 °F 44.3 °F 37.4 °F 71% 30.31 in 10.0 mi NNW 4.6 mph - N/A   Clear
8:50 PM 46.4 °F 43.5 °F 37.4 °F 71% 30.31 in 10.0 mi North 5.8 mph - N/A   Clear
9:10 PM 44.6 °F 39.7 °F 35.6 °F 71% 30.32 in 10.0 mi North 9.2 mph - N/A   Clear
9:30 PM 44.6 °F 40.7 °F 32.0 °F 61% 30.33 in 10.0 mi North 6.9 mph - N/A   Clear
9:50 PM 44.6 °F 41.4 °F 32.0 °F 61% 30.34 in 10.0 mi North 5.8 mph - N/A   Clear
10:10 PM 42.8 °F 39.3 °F 32.0 °F 66% 30.35 in 10.0 mi North 5.8 mph - N/A   Clear
10:30 PM 42.8 °F 40.1 °F 32.0 °F 66% 30.35 in 10.0 mi North 4.6 mph - N/A   Clear
10:50 PM 41.0 °F 38.0 °F 32.0 °F 70% 30.36 in 10.0 mi North 4.6 mph - N/A   Clear
11:10 PM 41.0 °F 39.0 °F 32.0 °F 70% 30.36 in 10.0 mi North 3.5 mph - N/A   Clear
11:30 PM 41.0 °F 39.0 °F 32.0 °F 70% 30.37 in 10.0 mi NW 3.5 mph - N/A   Clear
11:50 PM 39.2 °F 37.0 °F 32.0 °F 75% 30.37 in 10.0 mi WNW 3.5 mph - N/A   Clear